SCP
2 2 2 2 2 1 1 1 1 1 1 1 1 1 1 1 1 1 1 1 1 1 1 1 1 1 2 1 1 1 1 1 1 1 1 1 1 1 0 0 0 1 1
2 2 2 2 2 1 1 1 1 1 1 1 1 1 1 1 1 1 1 1 1 1 1 1 1 1 2 1 1 1 1 1 1 1 1 1 1 1 1 1 1 1 1
2 2 2 2 2 1 1 1 1 2 2 2 2 1 1 1 1 1 1 1 1 1 1 1 1 1 1 2 1 1 1 1 1 1 1 1 1 1 1 1 1 1 1
1 2 2 2 2 2 1 1 2 2 3 3 2 2 2 2 2 1 1 1 1 1 1 1 1 1 1 1 1 1 1 1 1 1 1 1 1 1 1 1 1 1 1
2 2 2 2 3 3 3 3 3 3 3 3 3 3 3 2 2 2 2 2 1 1 1 1 1 1 1 1 1 1 1 1 1 1 1 1 1 1 1 1 1 1 1
2 2 2 3 4 5 5 5 5 5 4 4 4 3 3 3 3 2 2 2 2 2 1 1 1 1 1 1 1 1 1 1 2 2 2 2 1 1 1 1 1 1 1
4 4 5 6 7 8 8 8 8 8 6 4 3 3 2 2 3 2 2 2 2 2 2 2 2 1 1 1 1 1 1 1 2 2 2 2 1 1 1 1 1 1 1
6 6 7 9 9 10 10 9 10 10 8 6 4 3 2 2 2 2 2 2 2 2 2 2 2 1 1 1 1 1 1 2 2 2 1 1 1 1 1 1 1 1 1
7 7 7 7 7 8 9 10 11 11 10 7 5 3 2 2 3 3 3 3 2 2 2 2 1 1 1 1 1 1 2 2 2 2 1 1 1 1 1 1 1 1 1
4 4 4 4 5 6 8 10 13 13 11 8 6 4 3 3 3 3 3 3 3 2 2 1 1 1 1 1 1 1 2 2 2 2 2 2 2 2 2 2 2 2 2
2 2 3 4 6 6 6 7 11 12 11 8 6 4 3 2 2 2 2 2 2 2 2 2 2 1 1 1 1 1 2 2 2 2 2 2 2 2 2 2 2 2 2
2 2 4 6 6 5 4 4 6 8 8 7 5 4 3 2 2 2 2 2 2 2 2 2 2 2 2 2 1 1 1 2 2 1 2 2 2 2 2 2 2 2 2
3 3 4 5 5 4 3 3 3 4 6 6 4 3 2 2 2 2 2 2 2 2 2 3 2 2 2 1 1 1 2 2 1 1 2 2 2 2 2 2 2 2 2
3 3 3 4 4 4 4 3 3 3 4 3 3 2 2 3 3 3 3 3 3 3 2 2 2 2 1 1 2 2 2 2 2 2 2 2 2 2 2 2 2 2 2
3 3 3 4 5 5 4 4 4 3 3 2 2 3 3 3 4 4 4 3 3 2 2 2 2 2 2 2 2 2 3 3 3 3 3 3 3 2 2 2 2 2 2
4 4 4 4 5 5 5 4 4 4 4 3 3 4 4 5 5 5 4 4 3 3 2 2 2 2 3 3 3 3 3 4 4 4 3 3 3 3 2 1 1 1 1
6 5 5 5 5 4 4 5 5 5 5 5 5 5 6 6 6 6 5 4 4 3 3 3 3 3 3 4 4 4 4 5 5 4 4 3 3 4 3 2 1 1 1
5 5 6 6 5 5 5 5 5 5 5 6 6 6 7 7 6 6 5 5 4 4 5 5 5 4 4 3 3 4 4 5 6 5 4 3 3 4 3 2 2 2 2
3 4 5 5 6 6 6 6 7 7 7 8 8 8 8 8 7 6 5 5 5 5 6 7 7 7 5 3 2 3 4 5 6 7 6 4 3 3 3 3 3 3 3
4 4 4 5 6 7 7 8 9 9 9 9 10 10 10 9 8 7 6 5 5 6 7 8 8 9 7 4 2 3 5 6 7 8 7 5 4 3 2 3 3 3 3
6 6 5 6 7 8 8 8 9 9 10 10 11 12 11 10 9 8 7 6 6 6 7 8 9 9 8 4 2 3 6 8 8 8 8 6 4 2 2 2 3 3 3
6 6 6 7 8 8 8 8 9 11 12 12 13 12 10 9 8 7 7 7 6 6 7 8 9 9 8 5 2 2 5 8 8 8 7 6 3 1 1 2 2 2 2
7 7 7 8 9 9 9 10 12 14 15 15 15 13 10 7 6 6 6 7 7 8 8 9 9 9 8 7 4 2 2 5 6 6 5 4 2 1 1 1 1 1 1
7 7 7 8 9 10 11 11 13 14 14 14 13 11 9 7 6 6 6 7 8 10 11 12 12 13 13 11 8 4 3 4 5 6 5 3 2 2 3 2 2 2 2
7 7 7 8 9 11 12 12 12 12 11 10 9 8 8 7 7 6 6 7 8 10 12 14 15 16 16 13 9 6 5 5 6 7 6 5 5 6 5 4 3 3 3
6 6 7 8 9 11 13 13 13 12 11 9 7 6 7 8 7 6 5 6 7 8 10 13 15 16 16 12 7 5 5 5 6 7 7 6 7 7 6 5 4 3 4
Wind_Speed
8 8 7 6 5 5 5 4 4 4 3 2 2 2 2 1 2 2 3 2 2 2 2 2 2 1 2 2 2 2 3 2 1 1 2 2 2 2 1 1 0 1 1
9 9 8 7 6 6 6 6 5 5 4 3 1 1 1 1 1 2 2 2 2 1 1 2 1 2 1 2 1 1 1 1 1 1 1 2 2 2 1 1 1 1 0
11 10 9 8 8 7 7 5 5 5 4 4 3 3 2 1 2 2 2 1 1 1 1 1 1 0 1 1 1 1 1 1 1 1 1 1 1 2 2 1 1 1 1
11 11 10 9 8 8 7 6 6 5 5 5 4 3 2 2 2 1 2 2 1 1 1 0 0 1 1 1 2 1 1 2 1 2 1 1 1 1 2 2 2 1 1
13 12 11 10 9 8 8 7 7 6 5 5 4 4 3 2 2 2 2 1 1 1 1 1 0 1 1 0 1 0 1 1 2 1 1 1 2 2 1 1 1 1 1
13 12 11 10 9 9 8 8 7 6 6 5 5 4 3 2 2 1 1 1 1 1 1 1 0 0 0 1 1 1 1 2 2 2 2 2 1 2 1 2 2 1 1
13 13 12 11 10 10 9 8 8 7 7 6 5 5 4 4 3 2 2 1 1 1 1 1 0 0 0 1 1 1 1 2 2 2 2 2 2 1 1 1 1 0 0
13 13 13 12 11 11 10 9 9 8 7 6 6 5 5 4 3 3 1 1 0 1 1 1 1 1 1 0 0 1 1 1 1 2 2 2 2 1 2 1 1 1 1
13 13 13 13 12 11 11 10 10 8 7 7 6 5 5 3 2 3 2 2 1 1 2 1 1 1 1 1 0 1 1 1 2 1 1 2 1 2 2 2 2 2 2
13 13 12 12 11 11 10 10 10 9 8 8 6 5 5 4 3 3 2 1 1 1 1 1 1 1 1 0 0 0 1 1 1 2 2 2 2 1 1 2 2 3 2
12 12 12 12 11 11 10 10 10 9 8 7 6 6 5 5 4 3 3 2 2 2 2 1 1 1 1 1 0 0 1 1 2 2 2 2 2 2 1 1 2 2 2
11 11 12 11 11 11 11 10 10 9 9 8 7 7 6 5 5 4 3 3 3 3 2 2 2 1 1 1 1 1 1 1 2 2 2 2 1 1 2 1 1 1 1
9 10 10 11 11 11 10 10 10 9 9 9 8 7 7 6 5 5 5 4 4 3 3 2 2 1 1 1 1 1 1 1 1 1 2 2 2 2 2 1 1 0 1
9 10 10 10 10 10 10 10 10 9 9 9 8 8 7 7 6 6 5 5 4 4 3 3 2 2 1 1 1 1 1 1 1 2 2 2 2 2 2 1 1 0 0
9 10 10 10 10 10 10 10 9 9 9 9 9 8 7 7 6 6 6 5 4 4 3 3 2 2 1 1 0 1 1 1 1 2 2 3 5 7 5 3 2 1 0
8 9 9 9 10 10 10 10 9 9 9 9 9 8 7 7 7 6 6 5 5 4 3 3 2 2 2 4 3 2 1 1 1 1 1 2 3 4 5 5 6 5 2
7 8 8 9 9 9 10 10 9 9 9 9 9 8 8 8 7 7 6 6 5 5 4 3 3 3 3 4 3 2 0 1 1 1 1 1 2 2 2 3 3 4 4
6 7 7 7 8 8 9 9 9 10 10 9 9 8 8 8 8 7 6 6 5 4 4 4 3 3 3 2 1 0 2 2 1 1 1 1 2 2 2 2 3 4 4
5 6 6 7 7 8 9 9 10 10 9 9 9 8 8 8 8 8 7 6 5 5 4 4 4 3 3 2 0 2 3 2 2 2 2 2 1 4 3 2 2 3 3
4 5 6 7 7 8 9 10 10 9 9 9 8 8 8 8 8 7 7 6 6 5 5 4 4 3 3 2 0 3 2 3 2 3 3 4 3 3 2 1 1 2 2
4 5 6 6 7 9 10 10 9 8 7 7 7 7 7 7 7 7 6 6 6 5 5 5 4 3 2 4 2 1 1 2 2 2 2 3 4 2 2 1 1 1 1
5 6 6 6 6 8 9 9 9 8 8 7 7 7 7 6 6 7 6 6 6 6 6 5 4 3 3 3 3 2 1 2 2 1 2 4 4 3 2 1 2 2 3
5 6 7 7 7 7 8 9 8 8 9 9 8 7 6 6 6 6 7 6 6 5 5 4 4 4 4 4 4 3 2 1 1 2 4 4 4 5 4 3 1 2 2
5 5 7 7 6 6 6 7 8 8 8 8 8 7 7 7 6 5 5 5 5 4 4 4 4 4 4 3 3 4 4 5 4 3 5 5 3 2 2 3 3 1 0
5 5 6 6 7 6 6 7 7 7 8 7 7 7 6 7 6 5 3 3 3 1 2 3 3 4 4 2 1 1 2 2 2 3 3 3 3 3 2 2 1 1 1
5 6 6 6 6 6 6 6 7 7 8 7 7 5 5 5 6 6 5 6 4 5 4 3 2 3 4 6 3 2 2 2 2 2 2 2 2 1 2 1 1 1 1
Wind_Direction
178 179 180 180 174 170 171 171 173 158 171 159 165 146 129 107 97 97 84 71 50 55 43 39 77 72 91 106 135 144 148 147 136 146 132 118 122 109 118 154 180 153 161
183 183 184 186 185 178 179 178 181 173 184 157 158 136 105 118 101 83 84 85 80 58 80 71 72 82 113 132 153 183 188 152 160 210 181 168 150 148 103 119 133 105 170
188 185 188 191 189 186 186 184 180 177 184 173 177 154 154 163 133 118 121 95 91 98 56 62 45 92 196 136 189 198 214 215 178 232 278 251 118 120 120 86 83 98 137
192 190 189 190 191 188 182 181 177 181 181 188 192 188 180 152 121 131 103 105 103 102 112 114 161 264 273 174 226 151 239 237 218 182 222 286 340 229 149 147 121 109 103
194 192 191 187 189 186 181 176 174 179 181 188 182 199 194 167 149 137 120 142 119 126 80 97 158 235 255 301 313 232 262 249 268 256 208 194 203 235 224 167 140 124 101
192 191 188 184 185 182 180 174 168 175 178 183 185 194 182 172 153 161 155 183 147 138 95 86 64 236 282 218 227 246 233 289 295 285 264 237 231 215 212 193 177 160 110
187 188 186 183 183 181 179 176 171 176 179 183 186 186 187 185 186 199 175 218 159 125 90 61 51 28 352 260 245 223 277 279 281 277 277 272 264 262 256 218 184 196 180
185 186 185 183 184 182 181 179 175 178 179 182 184 188 193 203 185 182 206 180 179 82 86 93 84 67 46 42 70 267 261 282 288 299 309 288 269 256 238 227 207 208 200
183 184 184 183 183 182 181 182 177 178 180 181 179 182 190 200 181 170 193 174 156 147 127 124 121 102 83 40 301 339 329 321 296 296 269 273 286 270 257 232 226 239 236
181 181 182 182 182 180 178 179 176 176 179 179 181 173 178 179 179 182 149 137 137 118 133 148 137 124 104 105 258 215 14 339 343 333 341 313 303 307 283 261 250 247 241
181 178 178 179 178 177 174 175 174 172 173 175 175 173 170 172 174 173 169 163 156 149 157 151 138 125 112 101 87 341 21 4 17 7 6 338 337 322 290 258 248 252 238
179 175 173 173 175 176 175 174 174 172 170 170 169 171 168 167 166 162 158 156 153 154 149 139 123 112 93 73 52 6 27 25 26 18 5 348 358 352 320 312 279 253 236
176 170 170 173 176 176 177 176 175 174 170 168 171 169 169 169 165 158 155 155 153 146 138 128 116 99 83 80 65 32 29 29 26 24 15 9 14 4 6 340 332 239 188
176 173 171 175 175 175 176 177 176 174 169 170 172 169 171 169 164 160 157 156 155 150 144 134 126 119 107 95 99 103 85 64 51 45 35 27 27 23 11 23 21 4 151
178 175 174 174 176 176 177 178 175 172 171 172 170 170 168 165 164 161 159 157 157 154 147 143 139 140 141 55 48 146 125 103 76 58 55 55 53 38 24 14 24 36 210
180 177 176 175 178 178 178 176 174 172 172 173 170 166 166 167 167 166 161 157 154 150 147 146 145 142 83 45 19 337 107 92 81 65 64 97 97 83 72 54 39 21 356
183 180 179 179 180 177 175 174 170 170 173 172 169 167 170 172 170 169 165 162 158 154 154 149 145 125 88 61 52 2 92 83 55 42 30 31 73 99 99 108 116 70 42
188 184 181 178 178 175 171 169 166 169 171 171 172 171 171 173 170 169 169 168 164 162 159 154 146 133 106 88 98 152 140 95 67 43 30 41 37 36 29 85 86 76 63
192 185 182 178 174 171 167 166 168 167 169 171 172 173 175 175 173 172 172 169 165 160 158 148 146 142 123 96 135 240 148 131 108 79 53 45 71 37 12 100 99 94 104
182 179 176 171 170 167 164 167 169 166 169 170 170 170 173 175 173 171 169 164 163 160 154 143 148 145 134 111 89 262 168 142 140 125 107 67 50 41 2 136 124 112 96
170 169 167 170 166 163 164 167 165 167 165 160 161 163 167 170 167 162 161 160 159 153 151 149 146 143 136 124 101 309 226 162 158 143 128 96 94 74 23 336 80 36 311
169 165 160 158 159 162 163 163 163 156 152 153 153 155 160 160 155 157 159 159 159 160 161 161 161 147 134 114 116 111 338 321 150 138 112 104 119 116 84 75 49 295 263
169 163 156 150 152 161 164 163 157 154 154 153 150 151 152 149 155 163 164 167 174 175 172 173 170 153 137 126 123 131 122 19 123 92 84 110 146 157 137 132 207 233 211
164 161 155 150 148 153 158 155 154 156 155 153 150 154 156 156 155 168 174 173 175 177 179 176 171 160 157 151 152 153 150 152 154 144 136 151 157 160 135 161 172 184 30
157 159 156 149 144 143 142 147 151 155 155 154 156 160 162 154 154 153 135 164 136 145 189 173 169 172 168 134 100 196 171 168 140 163 166 157 150 152 137 126 117 162 157
155 157 155 150 147 147 147 150 155 159 159 159 162 166 162 158 157 150 132 64 78 92 82 66 83 118 113 131 134 108 95 105 159 212 167 153 151 150 142 144 149 168 152